Find Starlink 34618

NORAD ID: 64770 Int'l Des: 2025-147 Owner: SPXS Country: US Constellation: starlink operational
LEOCIRCULAR

Live Position

Loading 3D Globe...

About Starlink 34618

Description loading...

Upcoming Passes

Passes for default location (London). Set your location on the main map for personalized predictions.

Altitude History

Loading altitude history...

Two-Line Element Set

1 64770U 25147R 26104.22717105 .00009269 00000-0 32469-3 0 9994
2 64770 53.1579 77.6130 0001561 91.6834 268.4346 15.30199221 44121
Epoch: Apr 14, 2026 • Age: 6 hours

Current Status

Altitude 489.7 km
Velocity 7.62 km/s
Sub-Earth Point -41.23°S, 73.03°W
Launch Date Jul 8, 2025
Age 0.7 years
Type internet

Technical Details

Classification Payload
Mass 575.00 kg
Dry Mass 530.00 kg
Total Mass 575.00 kg
Length 0.30 m
Diameter 4.10 m
Span 29.00 m
Shape Box + pan
Manufacturer SPXS
Bus Type Starlink V2MO
Phase Status In Orbit
Owner/State SPXS/US

Most Searched